Auckland, New Zealand

10:03 PM NZST on July 24, 2017 (GMT +1200)
Auckland International

Weather History for NZAA - November, 2012

Change the Weather History Date:

Thursday, November 22, 2012

  Actual Average Record
Temperature  
Mean Temperature 65 °F -  
Max Temperature 71 °F 65 °F 77 °F (2013)
Min Temperature 59 °F 53 °F 48 °F (1999)
Growing Degree Days 15 (Base 50)    
Moisture  
Dew Point 53 °F    
Average Humidity 70    
Maximum Humidity 88    
Minimum Humidity 46    
Precipitation  
Precipitation 0.00 in - - ()
Sea Level Pressure  
Sea Level Pressure 29.91 in    
Wind  
Wind Speed 7 mph ()    
Max Wind Speed 18 mph    
Max Gust Speed -    
Visibility 6.2 miles    
Events      
Averages and records for this station are not official NWS values.
T = Trace of Precipitation, MM = Missing Value Source: Averaged Metar Reports

Daily Weather History Graph

Daily Weather History Graph

Search for Another Location

Airport or City:

Trip Planner

Search our weather history database for the weather conditions in past years. The results will help you decide how hot, cold, wet, or windy it might be!

Date:

Astronomy

Nov. 22, 2012 Rise Set
Actual Time 5:58 AM NZDT 8:16 PM NZDT
Civil Twilight 5:28 AM NZDT 8:45 PM NZDT
Nautical Twilight 4:52 AM NZDT 9:22 PM NZDT
Astronomical Twilight 4:12 AM NZDT 10:01 PM NZDT
Moon 2:21 PM NZDT (11/22) 2:07 AM NZDT (11/22)
Length of Visible Light 15h 17m
Length of Day
14h 18m
Waxing Gibbous, 64% of the Moon is Illuminated
Nov 22
Waxing Gibbous
Nov 29
Full
Dec 7
Last Quarter
Dec 13
New
Dec 20
First Quarter

Hourly Weather History & Observations

Time (NZDT) Temp. Dew Point Humidity Pressure Visibility Wind Dir Wind Speed Gust Speed Precip Events Conditions
12:00 AM 60.8 °F 57.2 °F 88% 29.95 in 6.2 mi NW 3.5 mph - N/A   Mostly Cloudy
1:00 AM 60.8 °F 55.4 °F 82% 29.95 in 6.2 mi East 2.3 mph - N/A   Mostly Cloudy
2:00 AM 60.8 °F 55.4 °F 82% 29.92 in 6.2 mi SSE 2.3 mph - N/A   Partly Cloudy
3:00 AM 59.0 °F 55.4 °F 88% 29.92 in 6.2 mi ESE 3.5 mph - N/A   Partly Cloudy
4:00 AM 59.0 °F 55.4 °F 88% 29.89 in 6.2 mi SE 5.8 mph - N/A   Partly Cloudy
5:00 AM 59.0 °F 55.4 °F 88% 29.89 in 6.2 mi SE 3.5 mph - N/A   Mostly Cloudy
6:00 AM 59.0 °F 55.4 °F 88% 29.89 in 6.2 mi SE 8.1 mph - N/A   Scattered Clouds
7:00 AM 59.0 °F 55.4 °F 88% 29.92 in 6.2 mi SE 8.1 mph - N/A   Mostly Cloudy
8:00 AM 60.8 °F 55.4 °F 82% 29.92 in 6.2 mi ESE 8.1 mph - N/A   Mostly Cloudy
9:00 AM 62.6 °F 55.4 °F 77% 29.92 in 6.2 mi SE 8.1 mph - N/A   Mostly Cloudy
10:00 AM 66.2 °F 55.4 °F 68% 29.92 in 6.2 mi ENE 10.4 mph - N/A   Mostly Cloudy
11:00 AM 68.0 °F 55.4 °F 64% 29.92 in 6.2 mi ENE 11.5 mph - N/A   Partly Cloudy
12:00 PM 68.0 °F 55.4 °F 64% 29.92 in 6.2 mi ENE 12.7 mph - N/A   Partly Cloudy
1:00 PM 69.8 °F 51.8 °F 53% 29.89 in 6.2 mi ENE 10.4 mph - N/A   Partly Cloudy
2:00 PM 71.6 °F 50.0 °F 46% 29.89 in 6.2 mi NE 12.7 mph - N/A   Partly Cloudy
3:00 PM 71.6 °F 51.8 °F 50% 29.86 in 6.2 mi NE 12.7 mph - N/A   Partly Cloudy
4:00 PM 69.8 °F 51.8 °F 53% 29.86 in 6.2 mi NE 15.0 mph - N/A   Partly Cloudy
5:00 PM 69.8 °F 51.8 °F 53% 29.86 in 6.2 mi NNE 18.4 mph - N/A   Partly Cloudy
6:00 PM 68.0 °F 50.0 °F 52% 29.86 in 6.2 mi NNE 16.1 mph - N/A   Partly Cloudy
7:00 PM 68.0 °F 48.2 °F 49% 29.89 in 6.2 mi NE 11.5 mph - N/A   Partly Cloudy
8:00 PM 64.4 °F 50.0 °F 59% 29.89 in 6.2 mi NE 11.5 mph - N/A   Partly Cloudy
9:00 PM 62.6 °F 50.0 °F 63% 29.92 in - NNE 10.4 mph - N/A   Clear
10:00 PM 60.8 °F 51.8 °F 72% 29.92 in - NE 10.4 mph - N/A   Clear
11:00 PM 60.8 °F 51.8 °F 72% 29.95 in - ENE 5.8 mph - N/A   Clear